TIMESTAMP,CO2_1_1_1,H2O_1_1_1,TAU_1_1_1,TAU_SSITC_TEST_1_1_1,H_1_1_1,H_SSITC_TEST_1_1_1,LE_1_1_1,LE_SSITC_TEST_1_1_1,FC_1_1_1,FC_SSITC_TEST_1_1_1,WD_0_0_1,WS_0_0_1,WS_MAX_0_0_1,U_SIGMA_0_0_1,V_SIGMA_0_0_1,W_SIGMA_0_0_1,USTAR_0_0_1,MO_LENGTH_0_0_1,ZL_0_0_1,FETCH_MAX_0_0_1,FETCH_70_0_0_1,FETCH_80_0_0_1,FETCH_90_0_0_1,PA_0_0_1,RH_0_0_1,TA_0_0_1,VPD_0_0_1,T_SONIC_0_0_1,T_SONIC_SIGMA_0_0_1
[yyyymmddHHMMSS],[mmolCO2 mol-1],[mmolH2O mol-1],[kg m-1 s-2],[#],[W m-2],[#],[W m-2],[#],[umolCO2 m-2 s-1],[#],[Decimal degrees],[m s-1],[m s-1],[m s-1],[m s-1],[m s-1],[m s-1],[m],[#],[m],[m],[m],[m],[kPa],[%],[deg C],[hPa],[deg C],[deg C]
20190907010000,395.91104232703861,13.743705331941046,4.29049784237525364E-003,1,-3.1148153793153415,0,1.8542375418147659,1,0.36504040041920310,1,240.07353403984260,1.7509372069627751,2.3422333828998991,0.28536106371736991,0.37021061654442816,8.86469400651120204E-002,6.15985938351685525E-002,6.2695460859220367,3.0305224237307362,1120.9858883804029,-9999.,-9999.,-9999.,94.065112435746045,75.290999999999997,15.158333333333360,4.2438595000519328,16.039270563912680,0.21510706997137150
20190907013000,396.28082981816453,13.871202299588736,1.97478603195202704E-002,0,-6.6623491284094456,0,4.7887405907014458,0,0.26486319288047855,0,225.07909515791968,2.0583953798313410,3.1598139356143178,0.32308291303888098,0.44038084844933650,0.16642923625478537,0.13211127620821780,28.920756415521144,0.65696760233432594,308.97845802342147,3165.0000000000000,5980.0000000000000,-9999.,94.081193390738733,76.722999999999999,15.011666666666656,3.9603615275821289,15.884053919705821,0.33720207909713473
20190907020000,396.69521486080839,14.125950748421602,2.11163568083128257E-002,0,-13.486889783106493,0,5.7821600920350154,0,0.82071259034292610,0,196.78786835636890,1.8284248020757246,2.7051614723498463,0.37383265036659530,0.28204017951576160,0.21251776497082647,0.13653436327579430,15.768451333614433,1.2049376059839627,256.56378309194389,2364.0000000000000,4332.0000000000000,-9999.,94.063535352919203,80.209999999999994,14.601666666666688,3.2792365233783292,15.511035073151334,0.40737978524473362
20190907023000,398.46712914833807,14.271714088290745,4.77146556492889090E-002,0,-25.464860392677075,0,20.794259739967352,0,2.6192949063942113,0,193.65484537129680,2.3363415200880477,3.8292061995602396,0.42972759011000200,0.40029169370780660,0.28301969184321685,0.20510994451562864,28.312098619500876,0.67109119162622344,96.781188376964266,176.94687912997443,211.76022145505783,265.09866887972663,94.054593134114583,83.170000000000002,14.198666666666668,2.7170025094930383,15.111885423448371,0.46684949685809701
20190907030000,401.49862890802382,14.147138982783057,5.85959079783566622E-002,0,-27.349549236494482,0,14.680917332435095,0,2.9712392769398628,0,182.75597502811203,2.2059430510586755,3.9814131783982019,0.54970423468485730,0.46926522042238861,0.32347252331713433,0.22723967050265118,35.843034657152963,0.53008904468439844,94.400067194117213,172.59343018807920,206.55025495798353,258.57640906250458,94.042478064236121,83.343333333333334,14.029333333333341,2.6596616574675798,14.867271067301431,0.25343913989847011
20190907033000,406.04321787406747,14.240238565746292,0.11987561007297529,0,-32.056300531161405,0,16.870217653681014,0,8.9799062866160693,0,181.99606701939916,2.1190800488081192,4.7011121122761814,0.69343379654527748,0.58506373250347532,0.42198968607576698,0.32488863526314921,89.360761286962571,0.21262128619278040,101.57832485305238,185.71757457647087,222.25650383764057,278.23876888854232,94.027170236797147,85.510000000000005,13.732666666666660,2.2695439092116976,14.559546173634999,0.20950381005746058
20190907040000,410.81490660203923,14.430499523641624,0.12037341367273705,0,-32.989274373236668,0,12.845129742805014,1,11.704994075073420,0,191.98272434120500,2.1949701984253145,5.2965884666549732,0.80392753577079090,0.66118934937962870,0.41184550152226068,0.32549380564085778,87.301651492059207,0.21763620361440933,103.72934151096568,189.65031905871302,226.96299454592844,284.13073676281425,93.996177483328708,87.966666666666669,13.496333333333325,1.8559909251169029,14.346640907535630,0.19526922272428537
20190907043000,411.20952336172508,14.754641883637824,0.12233916928962539,0,-32.865721025211108,0,-4.90333126498621388E-002,2,6.1509077294888019,0,198.04003069827002,2.3818487636041255,5.3358767447444091,0.75218310603503091,0.57450622273625540,0.41841040095566479,0.32825435555538979,89.875923877727402,0.21140255565938593,103.11962387558717,188.53556076177509,225.62891357773546,282.46062569844332,93.984778674045145,89.183333333333337,13.624666666666656,1.6823347710055145,14.539034256829154,0.23425284543771452
20190907050000,410.48768712112263,15.127822729718559,0.11319745694701436,0,-23.362535264148427,0,2.6670779765829193,2,3.4166769022939918,1,233.46531901587747,1.8910523009291629,5.9783662386694116,0.75292017701253988,0.74162979500194448,0.39035449852725357,0.31586156442266794,112.64902072663392,0.16866546977010496,105.70243075376116,193.25775547908131,231.28017458899157,289.53533388150896,93.976463651258683,90.643333333333331,13.757666666666637,1.4679027847659858,14.690862915886783,0.17566963763621871
20190907053000,409.35173360329100,15.503600854131749,0.16754126127369759,0,-37.143271160543385,0,-4.7619843797841295,0,2.5580358052121559,0,234.74890269694652,2.5817886380861261,5.8005674249658794,0.88230337836774264,0.66174217589277540,0.48803394074665646,0.38452658991127453,127.83587079643152,0.14862807975279482,103.47512980459733,189.18553898280635,226.40677150155585,283.43441151508733,93.966066065066258,91.053333333333327,14.064333333333309,1.4318103940289666,15.029234682420793,0.19598850513157928
20190907060000,411.30157510729089,15.722357992366172,0.19410622509282058,0,-31.743032597388130,0,-4.8027693050090798,0,1.3723854013014289,1,243.17759645970580,2.7152924820562299,5.6624190937381016,0.85023471978786291,0.75020944579759552,0.49569014900998581,0.41378276720571966,186.40130089549046,0.10193061909290387,108.36888102417313,198.13287699409031,237.11444991904875,296.83915427444447,93.969362106162123,93.323333333333338,13.901333333333355,1.0572796928170556,14.865985481047687,0.17857080575393836
20190907063000,412.57860604940618,15.542420305165086,0.22776182350295229,0,-39.082755404469395,0,-3.2756811894037079,1,2.4841633562819303,0,265.48945698078137,3.0631869251575443,6.7178280209453192,0.91625806922527242,0.80819130297870201,0.58940625071199404,0.44792502324219824,192.05179093916627,9.89316470681514265E-002,100.52807581613084,183.79738437722796,219.95852659256676,275.36197406560973,93.976546730026669,94.316666666666663,13.562666666666644,0.88037823220248135,14.523844340907431,0.19073630043703566
20190907070000,414.66022324916634,15.307980969361834,0.23646443922764476,0,-32.244613150579610,0,-3.8663881902607460,0,2.6990406501915065,0,276.76776482175342,3.3314479018914498,7.0808172993946235,0.98919460462477926,0.87620804596816604,0.60923654416717465,0.45606191532650653,245.66791187677180,7.73401778638900528E-002,99.321938788394462,181.59218121285090,217.31946162155435,272.05817788474400,93.966780203993054,95.536666666666662,13.130999999999972,0.67219917745192337,14.046300072564009,0.19791894231227114
20190907073000,416.17973693782449,15.024479646350207,0.27624293373973097,0,-25.791787237439443,1,8.8067084600462984,2,2.7301445933039385,0,271.21318972210088,3.4165867282502917,7.2138946245934648,1.0223279511057535,0.81484577525796809,0.66142761277644202,0.49257051153479914,386.95154778692654,4.91017547511201080E-002,98.910812515755097,180.84051126446670,216.41990467252202,270.93203932986631,93.973748868489579,96.053333333333327,12.764000000000010,0.58028384263045152,13.630961987813407,0.16910702895516599
20190907080000,417.28721035660783,14.755706916817731,0.24616663263681879,0,-26.525822137776370,0,3.8293172732262684,2,3.5173710838948922,0,279.23529448666642,3.2952291365236208,7.0502749176817385,1.0108514673295685,0.76422286363685432,0.59821801038502342,0.46468123410576784,315.85490136929377,6.01542034574458831E-002,102.30371855585820,187.04382561765541,223.84368760469616,280.22573462281855,93.968125072281694,96.579999999999998,12.404666666666685,0.49112943809461740,13.245812952669496,0.15927518572340565
20190907083000,418.12577130509965,14.530553567750452,0.22361930502654451,0,-31.991638945180089,0,-6.0297810306779454,1,3.8063745387921188,0,278.10664568541802,3.0479349125000388,6.4650327367254699,0.98894227869465290,0.79701513045697014,0.57615141042696394,0.44265441076856760,226.38236110896713,8.39288004017880174E-002,101.40921785974683,185.40839305879908,221.88649252704892,277.77555863482092,93.971986609375008,96.793333333333337,12.137999999999977,0.45248628316820716,12.948767948574528,0.17732842431570239
20190907090000,419.54010871669362,14.386114463800435,0.26666235233000224,0,-29.328561066309952,0,-1.7414787294499976,1,4.2394766255544960,0,267.84707998332897,3.2497688501531741,7.4213982180606717,0.98177702189136951,0.75820677853840868,0.58573930385036632,0.48315455535831053,321.12176639172702,5.91675868425015350E-002,107.33967334247809,196.25115710299750,234.86251180737679,294.01999498332867,93.981146032769104,97.276666666666671,11.912333333333322,0.37861066972078788,12.689449727376314,0.13536290668720369
20190907093000,421.04403708294950,14.141516535338914,0.24410660216289048,0,-24.869263997378354,0,-2.4746971735807084,0,4.2909899552384552,0,269.69349028546344,3.1536752518785551,7.0034819577381073,0.95084448871654736,0.81587340627729088,0.61335228596803604,0.46200153623404078,331.12485412322167,5.73801687291329715E-002,99.816340817458197,182.49610580341911,218.40122849090275,273.41242163804168,93.994098754123257,97.319999999999993,11.648000000000025,0.36613879407106881,12.393194917466872,0.15201763013918415
20190907100000,422.43024339110428,13.788758574095132,0.21972571315623554,0,-21.992729464198462,0,1.5526793942580839,2,3.6943566932620064,0,271.61477464817591,3.0532328509109599,6.5963744345044146,0.95469004284434300,0.75369376154276813,0.54948693939674464,0.43797811698207695,319.01208691700225,5.95588718396844047E-002,104.43616845021377,190.94262413454851,228.50955366238173,286.06684525523281,94.004449619686028,97.310000000000002,11.269666666666694,0.35841391757523300,11.984556440950655,0.15564565034017838
20190907103000,423.62985001102078,13.413020192901993,0.15837582968561617,0,-24.466665252554499,0,-0.54869334057277486,1,3.5242381187152758,0,271.38332353399511,2.7442429610043315,5.4581618111713395,0.79559830703098722,0.66059622782024718,0.47669751380163233,0.37157881147215027,175.08286810072690,0.10852004085898977,102.58912916995286,187.56564724726707,224.46817482023746,281.00751851232747,93.994722520182293,97.123333333333335,10.881000000000029,0.37351882056106661,11.544493676079639,0.19642781349308991
20190907110000,425.34562248166708,13.276351440496429,0.25750241565836446,0,-30.767826913798643,0,1.8029611021866456,2,4.4962692359564000,0,267.51295650660381,2.9306093795497286,6.6022721739698920,0.96848160102402348,0.73893666855038653,0.56808747074377175,0.47353122359832073,288.18267972578366,6.59304022645607751E-002,108.24345042447543,197.90354985380489,236.84000390309600,296.49558042942061,94.014538837673612,97.769999999999996,10.630666666666684,0.28476688681216272,11.289303199768085,0.13691655628278335
20190907113000,425.59647835574401,13.043711426342304,0.31143754994235012,0,-45.169861624417273,0,-9.4461324944624661,1,6.2568134064858185,0,273.32104503291811,3.1191515202414535,6.8594527428999168,1.0515846668056246,0.81041658986972676,0.64330091179744830,0.52051958284283628,260.73645551250200,7.28705157959354533E-002,105.69957100958131,193.25252695465190,231.27391738063335,289.52750059915184,94.026536486125011,97.413333333333327,10.422333333333313,0.32575430390332943,11.052921282316788,0.16312085447353047
20190907120000,425.72079203285091,12.812718172417306,0.22015745745989110,0,-27.791233906247381,0,-3.0424474793888212,0,3.4649221872634084,0,279.20213243771974,3.2201698434477266,6.8068365846699690,0.97806204225461812,0.75666771731095972,0.57075323132791933,0.43738888387872327,251.47292920739048,7.55548522057045840E-002,101.20230163885253,185.03008421446037,221.43375346180252,277.20878304910434,94.049484667534728,97.213333333333338,10.189333333333309,0.34552013515895397,10.794283425225160,0.11800546178900831
20190907123000,422.67643581541881,12.710584966249494,0.35739401129585457,0,-22.946193399858490,0,9.0391418910889296,0,-0.19442028909954015,2,287.14998959690246,3.1347610176298315,7.5490844968908357,1.1402340350326736,0.96521310677551220,0.70229897580353817,0.55740823406850659,630.35982792410164,3.01415146688054671E-002,104.08208310538177,190.29524319446702,227.73480402050336,285.09695063873806,94.046447574869788,95.596666666666664,10.319999999999993,0.55076105932625530,10.865834428575340,0.15169257819206358
20190907130000,419.11604595312025,12.784610706705214,0.51531152929504687,0,2.5500126173284636,0,36.578297065719831,0,-2.3960281360666436,0,295.89563434658095,3.3140877763451835,7.5133073187871338,1.3166835706382083,1.0214551706626691,0.79815720802172574,0.66979863266236550,-9841.3174339751276,-1.93063582467184751E-003,108.82772564346719,198.97179129914537,238.11841608049647,298.09600077361836,94.039012575705726,93.776666666666671,10.694000000000017,0.79806877592435510,11.212732534206566,9.05999289390158197E-002
20190907133000,416.64773429518118,12.910063810580523,0.36746745475754222,0,44.130531601569210,0,59.215054949469760,0,-5.9865937539337963,0,304.63311661433562,2.6159076132401697,7.3056217759372730,1.1917723122441222,0.90974777857597755,0.67492044714060961,0.56596420329375918,-343.15283138798588,-5.53689151365842624E-002,108.76370719381659,198.85474515554677,237.97834174061114,297.92064432190779,94.064649534722221,92.129999999999995,11.111333333333334,1.0376358571645914,11.617726332770417,0.23809724076606681
20190907140000,411.73144288476061,12.893242183309257,0.47268649125220696,0,86.854162801129718,0,79.414070854160741,0,-11.423213447551754,1,314.87346038697819,3.3762719289706702,9.3683221729829036,1.6771878046275868,0.97125972155431861,0.71957596681150426,0.64272389130388241,-255.32527276995029,-7.44148818245623511E-002,114.39660474899532,209.15347840694562,250.30329510936124,313.35002340741170,94.048702131510424,87.913333333333327,11.796666666666681,1.6675667393903360,12.278093414306682,0.31979350567540288
20190907143000,410.20937286533950,12.691591103506635,0.77853082200056611,0,117.87578812482477,0,110.21644500087427,0,-15.715667707399568,0,317.04837923926073,3.3987588972190435,9.5371497369652420,1.7172296833975667,1.2832745694034524,0.83804290624894762,0.82504337474658862,-397.92103274882589,-4.77481671897275750E-002,123.65831412785948,226.08683702221245,270.56820053169929,338.71928027502184,94.046905728862797,85.689999999999998,11.945666666666682,1.9938227772986217,12.384052679298520,0.35330115669756090
20190907150000,407.70179316975515,12.379120320450626,0.61353400661281887,0,101.28815180624429,0,88.017337452762305,0,-9.4541996976691394,0,327.10408340019688,3.5584288169100069,9.3442145372771304,1.6429672644986804,1.2518054068328732,0.81268932241797520,0.73251049857604622,-324.08793132238674,-5.86260646068295990E-002,115.23020634945425,210.67756799617894,252.12724108976096,315.63338733756854,94.050332974175348,82.939333333333337,12.062999999999988,2.3955324513267171,12.457346343146469,0.29142741786954612
20190907153000,405.05314234019369,12.193768646494929,0.57075284539324866,0,125.13770376548513,0,133.34944890953591,0,-12.649864657813012,0,321.16609518495898,2.9334350602926755,10.069483761203694,1.5084846367300819,1.1341086636735105,0.76085699866319045,0.70694261049866314,-235.82706875226637,-8.05675111874425282E-002,118.06462591262097,215.85979094940186,258.32903840655848,323.39730164615742,94.068505521918397,79.463999999999999,12.487333333333311,2.9651325183598694,12.890191114637616,0.38201530822070795
20190907160000,403.81932581337350,11.322073727318735,0.51444310777535562,0,136.24878686962194,0,126.73652181274815,0,-12.571414321762790,0,319.46194262685373,3.5395825691606841,8.2081381562991069,1.3859451656271105,1.2119520813277187,0.74805206049752437,0.67132739455913903,-185.48457225567023,-0.10243439531893021,114.83041560585963,209.94662301017010,251.25248662746270,314.53829855291173,94.089825740417368,72.370000000000005,12.785666666666657,4.0682481382740985,13.052023883021093,0.41923506892640616
20190907163000,403.47257631702246,11.244364356710463,0.67772520505370837,0,179.23275041751450,0,169.10455139281430,0,-15.471107429957270,0,325.95647837117599,3.0050125566371908,8.5041558091410181,1.5751444272553135,1.1300784912516937,0.77398731394600750,0.77076487988631992,-213.45558520237296,-8.90114914631373183E-002,124.79734901294840,228.16935606869922,273.06044394755793,341.83927329131461,94.127788632595497,70.530666666666662,13.079999999999984,4.4234545282822184,13.353799931844151,0.42772539659043107
20190907170000,402.69535070531845,11.229386311687866,0.45336735243140508,0,123.24919324191771,0,117.13497702736488,0,-14.721264121254118,0,330.51466658648167,2.9676448369353894,8.5869848930603165,1.5838859624158810,1.1287451232327554,0.65739229937342381,0.63030458175187132,-169.77982345560557,-0.11190964634833753,121.06973200338052,221.35408331274039,264.90430310362490,331.62875279759152,94.146310917534720,70.607333333333330,13.045999999999992,4.4021515420411088,13.336789577060244,0.39582323029685712
20190907173000,401.50910280344175,10.904931361961404,0.33070812179180864,0,70.848924750040794,0,161.24769739315064,0,-13.338140994839215,0,321.63831304177660,2.7682052954096430,8.2167633310167147,1.2891830233121175,1.2836839104005673,0.65543846137033712,0.53859854947273944,-184.25170725877081,-0.10311980433003860,107.01422372618418,195.65613140758083,234.15041802164617,293.12853806371652,94.131750641493056,67.324666666666673,13.323666666666668,4.9833497216094340,13.616663611518106,0.25136543453333959
20190907180000,402.15189251803014,10.821138469912606,0.56255257558008143,0,90.596120474160543,0,150.44411337200927,0,-15.449427919123767,0,320.93650876083927,2.9881706014450198,9.3214720660904593,1.6273007081764888,1.1787597912745782,0.77743909819203627,0.70202584406486168,-319.09889386959208,-5.95426695768015921E-002,115.39959316137785,210.98726111152814,252.49786465210860,316.09736405783593,94.142431809145648,68.208333333333329,13.007666666666637,4.7495307598179934,13.270846548800534,0.25199252687203283
20190907183000,401.22251918557475,10.512989880265106,0.65762462624238027,0,119.40747236591760,0,210.91124586923789,0,-21.437736927431519,0,321.53746516207184,3.0571370898568571,7.9379770952088569,1.5814778509233749,1.1125943554665341,0.79196240417614661,0.75901484149954035,-305.96351777530339,-6.20989068832494412E-002,121.02956209056046,221.28063990056873,264.81641009696460,331.51872118301640,94.141588975694447,66.190333333333328,13.024999999999977,5.0567393769123337,13.266517222934340,0.27273401334524200
20190907190000,400.75328224766048,10.914062752996774,0.68847144860812814,0,136.62505100613143,0,121.96106494150547,0,-18.502721472980603,0,327.77938258984398,3.4834162478072761,10.024521749648438,1.5364012976477857,1.3685704723258350,0.83093015479121712,0.77639258836286251,-286.23797838485785,-6.63783335363477695E-002,118.59554863058008,216.83048700694718,259.49071366820783,324.85158122434115,94.152244078993064,69.505666666666670,12.851999999999975,4.5095429906160165,13.101301406012624,0.31648914592984806
20190907193000,400.06486168012594,11.038962625961229,0.57514364105138771,0,102.18821174728407,0,141.59366859454991,0,-17.264657838442496,0,334.17067113197379,2.8960046792656078,8.5579934836230525,1.4387831445291881,1.1691148674759582,0.72223625823208337,0.70905569136441260,-291.60617693924598,-6.51563701408098411E-002,123.38311989965617,225.58369420435932,269.96606708319780,337.96548064925230,94.193744513801107,71.933333333333337,12.508666666666670,4.0581440161594200,12.813019574017744,0.28262266227112526
20190907200000,398.26120244714025,10.771006384419723,0.49779343759791062,0,87.479754182231829,0,147.62315021347385,0,-14.594847577100484,0,329.28503048938751,2.8679055928744854,7.4015647902616584,1.3349876139151775,1.2190748072372881,0.69746742964822706,0.65929638992082829,-273.89971574244726,-6.93684546130235308E-002,119.70169843045205,218.85288162949740,261.91100350460658,327.88149689747246,94.230718259954642,71.000333333333330,12.339333333333343,4.1466547961344054,12.614509621618481,0.27991056439959988
20190907203000,399.04412011976262,10.295423275815283,0.49757885446502031,0,27.737603993591513,0,129.80332620242157,0,-8.7873452231753451,0,330.11248736536226,3.1221931763304260,8.3078527838451528,1.5011913522658358,1.0596332423061869,0.68843472139046535,0.65842108909597363,-860.48776038328435,-2.20805000079686078E-002,120.82802402835321,220.91216404558571,264.37543860859643,330.96667720715988,94.256400621961802,70.183333333333337,11.833666666666659,4.1237909024648003,12.113770486619785,0.19211504998283901
20190907210000,398.38945334997589,10.307935543708185,0.53743534702555074,0,37.036071424518660,0,121.44833710962172,0,-12.398229750092010,0,337.07306521460924,2.9774429682592487,8.3681791349692958,1.5323777565325964,0.99400262471925960,0.66604223137040242,0.68408567186938385,-722.81123079300517,-2.62862545441565204E-002,127.92101052915172,233.88040556106253,279.89511156752377,350.39546612034815,94.261322287109380,70.976666666666674,11.682666666666648,3.9742336072651607,11.960586496141218,0.15398921014897018
20190907213000,399.51567990720264,9.6470371051422017,0.58849230455806700,0,4.8285047526990725,1,96.298435985442978,0,-9.0165727871752743,0,338.29460174988981,3.3929934005794324,8.7374016469294222,1.5439710758583294,0.98199735392734444,0.75115611714919983,0.71509994529471599,-6333.0618280499366,-3.00012861327937511E-003,120.38271367523720,220.09799469563691,263.40108583846120,329.74690315985629,94.279565513392853,68.514666666666670,11.218000000000018,4.1807360275311769,11.451023477551132,0.13733913334658704
20190907220000,398.95588604542741,9.8657855477984668,0.33926129266745619,0,2.6727794236414670,1,67.885239125866278,0,-7.0452324129177359,0,320.69108084540937,2.6849692144019408,7.2489016547672680,1.2231611557919722,0.84382108054904581,0.64172481743990462,0.54270474009938208,-5002.0973566974553,-3.79840667726315641E-003,109.50317803447550,200.20673369439959,239.59632671892703,299.94616951767722,94.305087787760428,71.063333333333333,11.009666666666647,3.7895374260234735,11.297105030059811,6.12364980147560301E-002
20190907223000,398.42285055952425,10.058806603397924,0.24733467134760131,0,-6.4896778118935634,1,70.137733087684211,0,-6.0768643218642122,0,327.92081639216076,2.3204825078017675,6.3190891185072156,1.0729194085285423,0.80152459194297421,0.51064728241151036,0.46328868607019974,1281.7083499206226,1.48239652189023248E-002,115.83490194872854,211.78314440942214,253.45033368825713,317.28974226700643,94.311057843532978,73.024000000000001,10.892666666666685,3.5053992403008261,11.225189943949431,7.86437821537352422E-002
20190907230000,398.76693850171233,10.001861504764577,0.21518147853453198,0,-9.2319314473612444,0,53.528891501450858,0,-4.6780126937059974,0,331.42402282278249,2.2134021029010573,5.9016667594019863,0.97901491643631455,0.64043040609792135,0.49674072327189028,0.43195317140296058,730.22487545874571,2.60193820267540475E-002,111.96967589368363,204.71627843017723,244.99310001385652,306.70228927851292,94.307396049479166,73.745999999999995,10.658999999999992,3.3589232561997053,10.990741617838580,7.45399204526386999E-002